Time,TemperatureF,DewpointF,PressureIn,WindDirection,WindDirectionDegrees,WindSpeedMPH,WindSpeedGustMPH,Humidity,HourlyPrecipIn,Conditions,Clouds,dailyrainin,SoftwareType,DateUTC
2014-07-24 00:00:00,65.3,44.5,29.80,NNW,338,0.0,0.0,47,0.00,,,0.00,Wunderground v.1.15,2014-07-24 07:00:00,
2014-07-24 00:06:00,65.1,44.4,29.80,NNW,338,0.0,0.0,47,0.00,,,0.00,Wunderground v.1.15,2014-07-24 07:06:00,
2014-07-24 00:10:00,65.0,45.4,29.80,NNW,338,0.0,0.0,49,0.00,,,0.00,Wunderground v.1.15,2014-07-24 07:10:00,
2014-07-24 00:15:00,64.9,44.7,29.80,NNW,338,0.0,0.0,48,0.00,,,0.00,Wunderground v.1.15,2014-07-24 07:15:00,
2014-07-24 00:20:00,65.1,44.4,29.79,NNW,333,0.0,0.0,47,0.00,,,0.00,Wunderground v.1.15,2014-07-24 07:20:00,
2014-07-24 00:25:00,65.0,44.3,29.79,NNW,333,0.0,0.0,47,0.00,,,0.00,Wunderground v.1.15,2014-07-24 07:25:00,
2014-07-24 00:30:00,64.9,44.2,29.79,NNW,333,0.0,0.0,47,0.00,,,0.00,Wunderground v.1.15,2014-07-24 07:30:00,
2014-07-24 00:35:00,64.7,44.5,29.79,NNW,333,0.0,0.0,48,0.00,,,0.00,Wunderground v.1.15,2014-07-24 07:35:00,
2014-07-24 00:40:00,64.5,44.4,29.79,NNW,333,0.0,0.0,48,0.00,,,0.00,Wunderground v.1.15,2014-07-24 07:40:00,
2014-07-24 00:45:00,64.3,44.7,29.79,NNW,344,0.0,0.0,49,0.00,,,0.00,Wunderground v.1.15,2014-07-24 07:45:00,
2014-07-24 00:50:00,64.2,44.6,29.79,NNW,344,0.0,0.0,49,0.00,,,0.00,Wunderground v.1.15,2014-07-24 07:50:00,
2014-07-24 00:55:00,64.0,44.4,29.79,NNW,344,0.0,0.0,49,0.00,,,0.00,Wunderground v.1.15,2014-07-24 07:55:00,
2014-07-24 01:00:00,64.0,44.4,29.79,NNW,344,0.0,0.0,49,0.00,,,0.00,Wunderground v.1.15,2014-07-24 08:00:00,
2014-07-24 01:10:00,64.0,44.4,29.79,NNW,344,0.0,0.0,49,0.00,,,0.00,Wunderground v.1.15,2014-07-24 08:10:00,
2014-07-24 01:15:00,64.3,45.3,29.79,NNW,344,0.0,0.0,50,0.00,,,0.00,Wunderground v.1.15,2014-07-24 08:15:00,
2014-07-24 01:20:00,64.5,44.9,29.79,NNW,344,0.0,0.0,49,0.00,,,0.00,Wunderground v.1.15,2014-07-24 08:20:00,
2014-07-24 01:25:00,64.5,44.4,29.79,NNW,344,0.0,0.0,48,0.00,,,0.00,Wunderground v.1.15,2014-07-24 08:25:00,
2014-07-24 01:30:00,64.4,44.3,29.79,NNW,344,0.0,0.0,48,0.00,,,0.00,Wunderground v.1.15,2014-07-24 08:30:00,
2014-07-24 01:35:00,64.2,44.1,29.78,NNW,344,0.0,0.0,48,0.00,,,0.00,Wunderground v.1.15,2014-07-24 08:35:00,
2014-07-24 01:40:00,64.0,44.4,29.78,NNE,26,0.0,0.0,49,0.00,,,0.00,Wunderground v.1.15,2014-07-24 08:40:00,
2014-07-24 01:45:00,64.1,44.5,29.78,NNE,28,0.0,0.0,49,0.00,,,0.00,Wunderground v.1.15,2014-07-24 08:45:00,
2014-07-24 01:50:00,64.0,44.4,29.78,NNE,28,0.0,0.0,49,0.00,,,0.00,Wunderground v.1.15,2014-07-24 08:50:00,
2014-07-24 01:55:00,63.8,44.3,29.78,NNE,28,0.0,0.0,49,0.00,,,0.00,Wunderground v.1.15,2014-07-24 08:55:00,
2014-07-24 02:00:00,63.8,44.3,29.78,NNE,28,0.0,0.0,49,0.00,,,0.00,Wunderground v.1.15,2014-07-24 09:00:00,
2014-07-24 02:05:00,63.7,44.7,29.77,NNE,28,0.0,0.0,50,0.00,,,0.00,Wunderground v.1.15,2014-07-24 09:05:00,
2014-07-24 02:10:00,63.7,44.7,29.77,WNW,291,0.0,1.0,50,0.00,,,0.00,Wunderground v.1.15,2014-07-24 09:10:00,
2014-07-24 02:15:00,63.7,44.7,29.77,West,279,0.0,1.0,50,0.00,,,0.00,Wunderground v.1.15,2014-07-24 09:15:00,
2014-07-24 02:20:00,63.9,44.4,29.77,West,275,0.0,1.0,49,0.00,,,0.00,Wunderground v.1.15,2014-07-24 09:20:00,
2014-07-24 02:25:00,64.0,44.4,29.77,WNW,288,0.0,1.0,49,0.00,,,0.00,Wunderground v.1.15,2014-07-24 09:25:00,
2014-07-24 02:30:00,64.0,44.4,29.77,WNW,288,0.0,0.0,49,0.00,,,0.00,Wunderground v.1.15,2014-07-24 09:30:00,
2014-07-24 02:35:00,63.8,44.3,29.77,WNW,288,0.0,0.0,49,0.00,,,0.00,Wunderground v.1.15,2014-07-24 09:35:00,
2014-07-24 02:40:00,63.5,44.5,29.77,WNW,288,0.0,0.0,50,0.00,,,0.00,Wunderground v.1.15,2014-07-24 09:40:00,
2014-07-24 02:45:00,63.2,46.3,29.77,North,355,1.0,3.0,54,0.00,,,0.00,Wunderground v.1.15,2014-07-24 09:45:00,
2014-07-24 02:50:00,63.1,46.2,29.77,NNW,329,2.0,2.0,54,0.00,,,0.00,Wunderground v.1.15,2014-07-24 09:50:00,
2014-07-24 02:55:00,62.9,46.0,29.77,NNW,334,2.0,2.0,54,0.00,,,0.00,Wunderground v.1.15,2014-07-24 09:55:00,
2014-07-24 03:00:00,62.9,46.0,29.77,NNW,342,3.0,5.0,54,0.00,,,0.00,Wunderground v.1.15,2014-07-24 10:00:00,
2014-07-24 03:10:00,62.9,46.0,29.77,NNW,329,3.0,3.0,54,0.00,,,0.00,Wunderground v.1.15,2014-07-24 10:10:00,
2014-07-24 03:15:00,62.8,45.9,29.77,NNW,346,2.0,4.0,54,0.00,,,0.00,Wunderground v.1.15,2014-07-24 10:15:00,
2014-07-24 03:20:00,62.8,45.9,29.77,NNW,346,2.0,4.0,54,0.00,,,0.00,Wunderground v.1.15,2014-07-24 10:20:00,
2014-07-24 03:25:00,62.7,45.8,29.77,NNW,346,3.0,5.0,54,0.00,,,0.00,Wunderground v.1.15,2014-07-24 10:25:00,
2014-07-24 03:30:00,62.7,45.8,29.77,NNW,346,2.0,2.0,54,0.00,,,0.00,Wunderground v.1.15,2014-07-24 10:30:00,
2014-07-24 03:40:00,62.6,45.7,29.77,North,10,3.0,4.0,54,0.00,,,0.00,Wunderground v.1.15,2014-07-24 10:40:00,
2014-07-24 03:50:00,62.2,45.8,29.76,NNW,339,4.0,4.0,55,0.00,,,0.00,Wunderground v.1.15,2014-07-24 10:50:00,
2014-07-24 04:05:00,62.7,45.8,29.77,NNW,346,2.0,2.0,54,0.00,,,0.00,Wunderground v.1.15,2014-07-24 11:05:00,
2014-07-24 04:15:00,62.4,46.0,29.76,NNW,342,3.0,5.0,55,0.00,,,0.00,Wunderground v.1.15,2014-07-24 11:15:00,